STARLINK-1191, 45222

Orbit data source: Space-Track

STARLINK-1191, 45222 is a payload satellite owned by SpaceX/Seattle (US) in LEO that was launched on Mon, 17 Feb 2020 UTC via an FALCON 9 launch vehicle from the Air Force Eastern Test Range (AFETR). Payload-class satellites include a variety of spacecraft equipped with specific instruments for various scientific and technological missions. These include communications satellites like Starlink; space stations such as the ISS; scientific satellites like the Hubble; Earth observation satellites from companies like Planet Labs, Umbra, and HawkEye 360; GPS; miniature CubeSats for education and research; and military/defense satellites.

Loading next visibility...
Identifier
45222, 2020-012AW
Orbit
LEO
Country
Flag of USUS
Related business
Manufacturer
SpaceX/Seattle
Mission
Partially operational Commercial Communications
Bus & Motor
STARLINK, Unknown motor
Mass
260 kg wet, ~248 kg dry
Launch date (UTC)
2020-02-17 (6 years ago)
Launch vehicle
FALCON 9
Launch site
Air Force Eastern Test Range (AFETR)
Object type
Payload
Rocket body
Debris
Shape & HBR
Box + 1 Pan, 10.1 m
Radar Cross Section
13.562 m², Large (>1 m²)

Expand to show TLE details & history
Last TLE update: 13 hours ago

TLE from 13 hours ago
0 STARLINK-1191
1 45222U 20012AW  26124.41431260  .00054580  00000-0  15416-2 0  9997
2 45222  53.1546  98.9054 0004939  69.3635 290.7898 15.35847533344067
Epoch: 2026-05-04T09:56Z
TLE epoch observation values (Epoch: 2026-05-04T09:56:36.608Z)
Latitude
0.00002°
Longitude
87.44903°
Altitude
458.109 km
Speed
7.64 km/s
True Right ascension
06h 35m 37s
True Declination
0° 00' 00"
Sunlit
Object was in daylight at epoch
Visualization orbit readout
Latitude
Unknown
Longitude
Unknown
Altitude
Unknown
Speed
Unknown
Apparent Right ascension
Unknown
Apparent Declination
Unknown
Sunlit
N/A
Visualization observer readout
Local Sidereal Time
06:40:25
Azimuth
Unknown
Elevation
Unknown
Doppler factor
Unknown
Orbital elements
Apogee altitude
462.039 km
Perigee altitude
455.285 km
Semi-major axis
6,836.799 km
Eccentricity
0.00049
Inclination
53.1546°
RAAN
98.9054°
Arg. of periapsis
69.3635°
True anomaly
290.73688°
Mean anomaly
290.7898°
Eccentric anomaly
290.76334°
Mean motion
3.83941 °/min
Orbital period
93.76 mins
BSTAR
0.0015416
Loading maneuver chart data...
Computing Atmospheric mass density...
Loading historical data...
Loading historical data...
Loading historical data...
Loading historical data...
Loading historical data...
Loading historical data...
Loading historical data...

Documentation

Showing up to 5 results
|